User: anonymous   Login
Location: Montr�al
(45.5000°N, 73.5830°W)
Time: 08:06:06
(UTC-04:00)
Language:

Cosmos 2369 - Orbit

View from above orbital plane
View from above orbital plane
View from above satellite
View from above satellite

Ground track
Ground track

The orbit data is extracted from the following two-line orbital elements,

1 26069U 00006A   16274.19425779 -.00000136  00000-0 -46977-4 0  9992
2 26069  70.9973 183.7136 0014142 268.3010  91.6492 14.13349674859387
Epoch (UTC): 30 September 2016 04:39:43
Eccentricity: 0.0014142
inclination: 70.9973°
perigee height: 838 km
apogee height: 858 km
right ascension of ascending node: 183.7136°
argument of perigee: 268.3010°
revolutions per day: 14.13349674
mean anomaly at epoch: 91.6492°
orbit number at epoch: 85938

The dashed part of the orbit path shows where the satellite is in the earth's shadow,  

DLR